Santa Rosa, CA

3:50 PM PDT on March 28, 2017 (GMT -0700)
Sonoma County

Weather History for KSTS - November, 2013

Change the Weather History Date:

Monday, November 18, 2013

  Actual Average Record
Temperature  
Mean Temperature 45 °F 52 °F  
Max Temperature 57 °F 63 °F 75 °F (2005)
Min Temperature 33 °F 40 °F 28 °F (2000)
Degree Days  
Heating Degree Days 20    
Month to date heating degree days 176  
Since 1 July heating degree days 419  
Cooling Degree Days 0    
Month to date cooling degree days 0  
Year to date cooling degree days 415  
Moisture  
Dew Point 39 °F    
Average Humidity 81    
Maximum Humidity 100    
Minimum Humidity 62    
Precipitation  
Precipitation 0.01 in 0.16 in 0.03 in (2011)
Month to date precipitation 0.01 2.63  
Year to date precipitation 7.06 27.19  
Since 1 July precipitation 0.54  
Sea Level Pressure  
Sea Level Pressure 30.09 in    
Wind  
Wind Speed 3 mph (SW)    
Max Wind Speed 9 mph    
Max Gust Speed 13 mph    
Visibility 5 miles    
Events Fog , Rain    
T = Trace of Precipitation, MM = Missing Value Source: NWS Daily Summary

Daily Weather History Graph

Daily Weather History Graph

Search for Another Location

Airport or City:

Trip Planner

Search our weather history database for the weather conditions in past years. The results will help you decide how hot, cold, wet, or windy it might be!

Date:

Astronomy

Nov. 18, 2013 Rise Set
Actual Time 6:56 AM PST 4:55 PM PST
Civil Twilight 6:28 AM PST 5:24 PM PST
Nautical Twilight 5:55 AM PST 5:56 PM PST
Astronomical Twilight 5:24 AM PST 6:28 PM PST
Moon 6:02 PM PST (11/18) 7:50 AM PST (11/18)
Length of Visible Light 10h 56m
Length of Day
9h 59m
Full, 99% of the Moon is Illuminated
Nov 18
Full
Nov 25
Last Quarter
Dec 2
New
Dec 9
First Quarter
Dec 17
Full

Hourly Weather History & Observations

Time (PST) Temp. Windchill Dew Point Humidity Pressure Visibility Wind Dir Wind Speed Gust Speed Precip Events Conditions
12:24 AM 39.2 °F 37.0 °F 37.4 °F 93% 30.08 in 1.0 mi NNE 3.5 mph - N/A   Clear
12:27 AM 39.2 °F 37.0 °F 39.2 °F 100% 30.08 in 4.0 mi NNE 3.5 mph - N/A   Clear
12:53 AM 39.0 °F - 37.9 °F 96% 30.06 in 4.0 mi Calm Calm - N/A   Clear
1:14 AM 39.2 °F 37.0 °F 37.4 °F 93% 30.08 in 1.2 mi NW 3.5 mph - N/A   Partly Cloudy
1:16 AM 39.2 °F 37.0 °F 37.4 °F 93% 30.08 in 0.8 mi NW 3.5 mph - N/A   Mist
1:35 AM 39.2 °F - 39.2 °F 100% 30.08 in 1.2 mi Calm Calm - N/A   Partly Cloudy
1:37 AM 39.2 °F - 39.2 °F 100% 30.08 in 3.0 mi Calm Calm - N/A   Partly Cloudy
1:49 AM 37.4 °F - 37.4 °F 100% 30.09 in 1.8 mi Calm Calm - N/A   Clear
1:53 AM 39.0 °F - 37.0 °F 93% 30.07 in 1.0 mi Calm Calm - N/A   Clear
2:04 AM 39.2 °F - 37.4 °F 93% 30.09 in 3.0 mi Calm Calm - N/A   Clear
2:18 AM 37.4 °F - 37.4 °F 100% 30.08 in 2.5 mi Calm Calm - N/A   Partly Cloudy
2:26 AM 37.4 °F - 35.6 °F 93% 30.08 in 1.5 mi Calm Calm - N/A   Scattered Clouds
2:31 AM 37.4 °F - 35.6 °F 93% 30.09 in 3.0 mi Calm Calm - N/A   Scattered Clouds
2:36 AM 35.6 °F - 35.6 °F 100% 30.09 in 2.5 mi Calm Calm - N/A   Mostly Cloudy
2:41 AM 37.4 °F - 35.6 °F 93% 30.09 in 0.8 mi Calm Calm - N/A   Mist
2:53 AM 36.0 °F - 36.0 °F 100% 30.08 in 2.0 mi Calm Calm - N/A   Mostly Cloudy
2:58 AM 37.4 °F - 35.6 °F 93% 30.09 in 4.0 mi Calm Calm - N/A   Mostly Cloudy
3:06 AM 35.6 °F - 35.6 °F 100% 30.10 in 1.5 mi Calm Calm - N/A   Scattered Clouds
3:15 AM 35.6 °F - 35.6 °F 100% 30.09 in 0.5 mi Calm Calm - N/A Fog Fog
3:20 AM 37.4 °F - 35.6 °F 93% 30.10 in 0.2 mi Calm Calm - N/A Fog Fog
3:38 AM 37.4 °F - 35.6 °F 93% 30.10 in 1.0 mi Calm Calm - N/A   Mist
3:41 AM 37.4 °F - 37.4 °F 100% 30.10 in 3.0 mi Calm Calm - N/A   Mostly Cloudy
3:51 AM 35.6 °F - 35.6 °F 100% 30.10 in 10.0 mi Calm Calm - N/A   Partly Cloudy
3:53 AM 36.0 °F - 35.1 °F 97% 30.08 in 10.0 mi Calm Calm - N/A   Partly Cloudy
4:01 AM 35.6 °F - 33.8 °F 93% 30.10 in 1.8 mi Calm Calm - N/A   Partly Cloudy
4:20 AM 37.4 °F - 35.6 °F 93% 30.10 in 3.0 mi Calm Calm - N/A   Partly Cloudy
4:34 AM 33.8 °F - 33.8 °F 100% 30.10 in 1.8 mi Calm Calm - N/A   Partly Cloudy
4:51 AM 33.8 °F 30.8 °F 33.8 °F 100% 30.10 in 0.8 mi West 3.5 mph - N/A   Mist
4:53 AM 33.1 °F 28.7 °F 33.1 °F 100% 30.09 in 0.8 mi West 4.6 mph - N/A   Mist
5:22 AM 35.6 °F 31.7 °F 35.6 °F 100% 30.10 in 0.2 mi WSW 4.6 mph - N/A Fog Fog
5:42 AM 35.6 °F - 35.6 °F 100% 30.10 in 0.5 mi Calm Calm - N/A Fog Fog
5:53 AM 36.0 °F 33.3 °F 36.0 °F 100% 30.09 in 1.0 mi West 3.5 mph - N/A   Mist
6:00 AM 35.6 °F - 35.6 °F 100% 30.11 in 0.5 mi Calm Calm - N/A Fog Fog
6:10 AM 33.8 °F 29.6 °F 33.8 °F 100% 30.11 in 0.2 mi NW 4.6 mph - N/A Fog Fog
6:50 AM 35.6 °F 32.8 °F 35.6 °F 100% 30.11 in 0.8 mi East 3.5 mph - N/A   Mist
6:53 AM 36.0 °F 32.1 °F 35.1 °F 97% 30.10 in 10.0 mi East 4.6 mph - N/A   Scattered Clouds
7:53 AM 39.0 °F - 37.9 °F 96% 30.08 in 10.0 mi Calm Calm - N/A   Mostly Cloudy
8:02 AM 37.4 °F 33.8 °F 37.4 °F 100% 30.11 in 8.0 mi WSW 4.6 mph - N/A   Partly Cloudy
8:53 AM 42.1 °F - 41.0 °F 96% 30.13 in 6.0 mi Calm Calm - N/A   Mostly Cloudy
9:53 AM 48.0 °F - 43.0 °F 83% 30.14 in 10.0 mi ESE 4.6 mph - N/A   Mostly Cloudy
10:53 AM 52.0 °F - 44.1 °F 74% 30.13 in 10.0 mi Calm Calm - N/A   Haze
11:53 AM 55.9 °F - 45.0 °F 67% 30.09 in 8.0 mi South 4.6 mph - N/A   Haze
12:53 PM 57.0 °F - 45.0 °F 64% 30.09 in 10.0 mi West 3.5 mph - N/A   Mostly Cloudy
1:53 PM 57.0 °F - 45.0 °F 64% 30.08 in 10.0 mi WSW 5.8 mph - N/A   Overcast
2:25 PM 55.4 °F - 46.4 °F 72% 30.08 in 10.0 mi SSW 6.9 mph - N/A   Overcast
2:32 PM 55.4 °F - 46.4 °F 72% 30.08 in 10.0 mi South 6.9 mph - N/A   Overcast
2:53 PM 57.0 °F - 46.9 °F 69% 30.07 in 10.0 mi WSW 4.6 mph - N/A   Overcast
3:53 PM 55.9 °F - 46.0 °F 69% 30.06 in 10.0 mi SSW 5.8 mph - N/A   Mostly Cloudy
4:53 PM 55.0 °F - 44.1 °F 67% 30.07 in 10.0 mi SSW 6.9 mph - N/A   Mostly Cloudy
5:53 PM 53.1 °F - 44.1 °F 71% 30.08 in 10.0 mi SW 4.6 mph - N/A   Mostly Cloudy
6:00 PM 53.6 °F - 44.6 °F 72% 30.10 in 10.0 mi SW 3.5 mph - N/A   Mostly Cloudy
6:53 PM 51.1 °F - 44.1 °F 77% 30.08 in 10.0 mi ESE 3.5 mph - N/A   Mostly Cloudy
7:53 PM 50.0 °F - 44.1 °F 80% 30.08 in 10.0 mi SE 4.6 mph - N/A   Partly Cloudy
8:53 PM 50.0 °F - 46.0 °F 86% 30.08 in 10.0 mi ESE 4.6 mph - N/A   Mostly Cloudy
9:53 PM 51.1 °F - 46.0 °F 83% 30.08 in 10.0 mi Calm Calm - 0.00 in Rain Light Rain
10:00 PM 51.8 °F - 46.4 °F 82% 30.10 in 10.0 mi Calm Calm - 0.00 in Rain Light Rain
10:53 PM 50.0 °F - 46.9 °F 89% 30.08 in 10.0 mi Calm Calm - 0.00 in   Overcast
11:13 PM 50.0 °F - 48.2 °F 94% 30.10 in 9.0 mi Calm Calm - N/A   Overcast
11:53 PM 50.0 °F - 48.9 °F 96% 30.08 in 7.0 mi Calm Calm - 0.00 in Rain Light Rain